THORAD AGENA D DEB, 4613

Orbit data source: Space-Track

THORAD AGENA D DEB, 4613 is space debris in SSO originally from a launch on Wed, 08 Apr 1970 UTC launched from the Air Force Western Test Range (AFWTR). Debris objects in space refer to the collection of defunct objects orbiting the Earth. Examples of debris include non-operational satellites, rocket bodies, and fragments generated from explosions, collisions, or faulty payload assembly.

Loading next visibility...
Identifier
4613, 1970-025R
Orbit
SSO
Country
Flag of USUS
Related business
Manufacturer
Unknown
Mission
Spacecraft
Bus & Motor
Unknown
Mass
Unknown
Launch date (UTC)
1970-04-08 (56 years ago)
Launch vehicle
Unknown
Launch site
Air Force Western Test Range (AFWTR)
Object type
Payload
Rocket body
Debris
Shape & HBR
Unknown shape, 0.1 m
Radar Cross Section
Medium (>0.1 m² and <1 m²)

Expand to show TLE details & history
Last TLE update: 23 hours ago

TLE from 23 hours ago
0 THORAD AGENA D DEB
1 04613U 70025R   26035.65087708  .00002544  00000-0  10535-2 0  9996
2 04613  98.5960  73.1491 0087822 194.9919 164.8655 14.25387141842226
Epoch: 2026-02-04T15:37Z
TLE epoch observation values (Epoch: 2026-02-04T15:37:15.779Z)
Latitude
-0.00005°
Longitude
64.01896°
Altitude
871.081 km
Speed
7.385 km/s
True Right ascension
04h 52m 35s
True Declination
0° 00' 00"
Sunlit
Object was in daylight at epoch
Visualization orbit readout
Latitude
Unknown
Longitude
Unknown
Altitude
Unknown
Speed
Unknown
Apparent Right ascension
Unknown
Apparent Declination
Unknown
Sunlit
N/A
Visualization observer readout
Local Sidereal Time
16:36:54
Azimuth
Unknown
Elevation
Unknown
Doppler factor
Unknown
Orbital elements
Apogee altitude
867.415 km
Perigee altitude
741.259 km
Semi-major axis
7,182.474 km
Eccentricity
0.00878
Inclination
98.596°
RAAN
73.1491°
Arg. of periapsis
194.9919°
True anomaly
165.12549°
Mean anomaly
164.8655°
Eccentric anomaly
164.99577°
Mean motion
3.5656 °/min
Orbital period
100.96 mins
BSTAR
0.0010535
Loading maneuver chart data...
Computing Atmospheric mass density...

Documentation

Showing up to 5 results
|